Regional Weather Roundup
Issued by NWS

Home | Current Version | Previous Version | Text Only | Print | Product List | Glossary On
Versions: 1 2 3 4 5 6 7 8 9 10 11 12 13 14 15 16 17 18 19 20 21 22 23 24 25 26 27 28 29 30 31 32 33 34 35 36 37 38 39 40 41 42 43 44 45 46 47 48 49 50
000
ASUS43 KOAX 271710
RWRNE

WEATHER ROUNDUP FOR NEBRASKA
NATIONAL WEATHER SERVICE OMAHA NE
1200 PM CDT FRI MAR 27 2015

NOTES: SATELLITE DATA IS BEING USED TO AUGMENT CLOUD COVER ABOVE
       12000 FEET.
       "FAIR" INDICATES FEW OR NO CLOUDS BELOW 12,000 FEET WITH NO
       SIGNIFICANT WEATHER AND/OR OBSTRUCTIONS TO VISIBILITY.

  * THESE STATIONS DO NOT REPORT WEATHER SUCH AS RAIN...SNOW OR FOG.

NEZ001>004-019>022-054>056-271800-
NEBRASKA PANHANDLE

CITY           SKY/WX    TMP DP  RH WIND       PRES   REMARKS
SCOTTSBLUFF    CLOUDY    53  39  59 NW13      30.11F
ALLIANCE       CLOUDY    58  39  49 NW21      30.07F
CHADRON        CLOUDY    55  39  54 NW17G24   30.06F
KIMBALL        PTSUNNY   60  32  35 NW18G25   30.12S
SIDNEY         PTSUNNY   53  36  52 W13       30.12F
$$

NEZ057>060-069>072-079>082-271800-
SOUTHWEST NEBRASKA

CITY           SKY/WX    TMP DP  RH WIND       PRES   REMARKS
NORTH PLATTE   CLOUDY    38  32  79 S13       30.14F WCI  30
IMPERIAL         N/A     47  35  63 SW13      30.14F
LEXINGTON      CLOUDY    39  28  63 SW14      30.19F WCI  31
MCCOOK         CLOUDY    40  32  73 S13       30.19F WCI  32
OGALLALA       MOSUNNY   48  40  73 SW12G17   30.11F
$$

NEZ005>010-023>029-035>040-094-271800-
NORTH CENTRAL NEBRASKA

CITY           SKY/WX    TMP DP  RH WIND       PRES   REMARKS
VALENTINE      CLOUDY    42  30  62 S16       30.04F
AINSWORTH      CLOUDY    38  29  71 S18       30.08F WCI  28
BROKEN BOW     CLOUDY    37  27  67 S15G24    30.16F WCI  28
O`NEILL        CLOUDY    33  28  81 S9        30.18F WCI  25
ORD            CLOUDY    34  23  64 S10       30.18F WCI  26
THEDFORD       CLOUDY    42  33  69 S16G22    30.09F
$$

NEZ041-046>049-061>064-073>077-083>087-271800-
SOUTH CENTRAL NEBRASKA

CITY           SKY/WX    TMP DP  RH WIND       PRES   REMARKS
GRAND ISLAND   CLOUDY    36  22  56 S7        30.24F WCI  30
AURORA         CLOUDY    34  22  60 SE3       30.25F
HASTINGS       CLOUDY    35  22  58 SE7       30.23F WCI  29
HEBRON         MOSUNNY   36  20  52 CALM      30.27F
HOLDREGE       CLOUDY    36  24  60 S8        30.21F WCI  30
KEARNEY *      CLOUDY    34  23  64 S8        30.22F WCI  27
YORK           PTSUNNY   34  23  64 SE5       30.25F WCI  30
$$

NEZ011>018-030>034-042>045-271800-
NORTHEAST NEBRASKA

CITY           SKY/WX    TMP DP  RH WIND       PRES   REMARKS
NORFOLK        PTSUNNY   30  17  58 SW5       30.23F WCI  25
ALBION         CLOUDY    33  23  67 S6        30.23F WCI  27
BLAIR          SUNNY     33  16  49 CALM      30.27F
COLUMBUS *     MOSUNNY   34  18  51 SE6       30.27F WCI  29
FREMONT        MOSUNNY   34  21  58 NW6       30.28F WCI  29
TEKAMAH        SUNNY     35  15  44 CALM      30.28F
WAYNE          PTSUNNY   32  17  54 SW7       30.25F WCI  25
$$

NEZ050>053-065>068-078-088>093-271800-
SOUTHEAST NEBRASKA

CITY           SKY/WX    TMP DP  RH WIND       PRES   REMARKS
LINCOLN        SUNNY     35  22  58 NW5       30.30F WCI  31
OMAHA EPPLEY   CLOUDY    35  16  45 CALM      30.29F
BEATRICE       SUNNY     35  21  57 N5        30.28F WCI  31
FALLS CITY     SUNNY     35  19  52 VRB5      30.29F WCI  31
NEBRASKA CITY  SUNNY     34  17  51 N6        30.28F WCI  28
PLATTSMOUTH    SUNNY     33  16  51 NW3       30.29S
$$

NEZ044-045-051>053-067-271800-
OMAHA AREA

CITY           SKY/WX    TMP DP  RH WIND       PRES   REMARKS
OMAHA EPPLEY   CLOUDY    35  16  45 CALM      30.29F
BLAIR          SUNNY     33  16  49 CALM      30.27F
FREMONT        MOSUNNY   34  21  58 NW6       30.28F WCI  29
MILLARD        SUNNY     33  14  45 NW5       30.29F WCI  29
OFFUTT AFB     MOSUNNY   34  18  51 CALM      30.28F
PLATTSMOUTH    SUNNY     33  16  51 NW3       30.29S
WAHOO          FAIR      33  19  56 NW5       30.28F WCI  29
$$


USA.gov is the U.S. government's official web portal to all federal, state and local government web resources and services.